{"data":{"norad_id":48232,"epoch":"2026-09-19T18:52:21.239616Z","epoch_age_seconds":83534,"freshness":"FRESH","line1":"1 48232U 21031Y   26262.78635694  .00000308  00000+0  79618-3 0  9996","line2":"2 48232  87.8899 270.8352 0001781  97.1424 262.9909 13.14499480260830","mean_motion":13.1449948,"eccentricity":0.0001781,"inclination_deg":87.8899,"raan_deg":270.8352,"arg_perigee_deg":97.1424,"mean_anomaly_deg":262.9909,"bstar":0.00079618,"rev_number":26083,"period_min":109.54739974488,"perigee_km":1204.4524245987,"apogee_km":1207.153824071,"semimajor_km":7583.9401243349,"source":"CELESTRAK","updated_at":"2026-09-20T09:00:44.596926Z"}}